DW1223 Weather Reports


Display with metric or nautical units.
time (UTC)temp
F
wind
direction
speed
MPH
gust
MPH
rain 1hr
in
rain 24hr
in
rain mn
in
humidity
%
barometer
mb
20260503030457 56 278 5.0 6.0 0.00 0.00 0.00 62 1015.2
20260503025955 56 278 5.0 6.0 0.00 0.00 0.00 62 1015.1
20260503025451 56 271 5.0 6.0 0.00 0.00 0.00 62 1014.9
20260503024949 57 279 5.0 6.0 0.00 0.00 0.00 61 1015.0
20260503024445 57 277 4.0 4.0 0.00 0.00 0.00 60 1015.2
20260503023943 58 282 4.0 4.0 0.00 0.00 0.00 60 1015.0
20260503023440 58 283 4.0 4.0 0.00 0.00 0.00 60 1015.0
20260503022936 59 273 4.0 4.0 0.00 0.00 0.00 60 1015.0
20260503022431 59 267 5.0 6.0 0.00 0.00 0.00 59 1014.8
20260503021927 61 273 4.0 4.0 0.00 0.00 0.00 57 1015.0
20260503021424 62 276 3.0 4.0 0.00 0.00 0.00 53 1014.7
20260503020921 62 257 3.0 3.0 0.00 0.00 0.00 53 1014.8
20260503020419 62 271 3.0 3.0 0.00 0.00 0.00 54 1014.9
20260503015915 63 277 3.0 3.0 0.00 0.00 0.00 55 1014.9
20260503015412 64 270 2.0 2.0 0.00 0.00 0.00 51 1014.8
20260503014908 65 303 2.0 2.0 0.00 0.00 0.00 45 1014.9
20260503014406 65 197 1.0 2.0 0.00 0.00 0.00 43 1014.7
20260503013903 66 46 0.0 0.0 0.00 0.00 0.00 38 1014.7
20260503013400 66 59 1.0 1.0 0.00 0.00 0.00 40 1015.1
20260503012857 66 40 0.0 0.0 0.00 0.00 0.00 40 1014.9
20260503012355 66 35 0.0 0.0 0.00 0.00 0.00 42 1014.9
20260503011851 66 39 0.0 0.0 0.00 0.00 0.00 40 1015.0
20260503011348 66 30 0.0 1.0 0.00 0.00 0.00 38 1015.0
20260503010845 67 25 1.0 1.0 0.00 0.00 0.00 38 1015.0
20260503010342 67 67 0.0 0.0 0.00 0.00 0.00 38 1015.0
20260503005838 68 45 0.0 1.0 0.00 0.00 0.00 36 1015.0
20260503005336 69 23 2.0 4.0 0.00 0.00 0.00 35 1015.0
20260503004827 70 33 0.0 2.0 0.00 0.00 0.00 34 1014.9
20260503004325 70 2 1.0 1.0 0.00 0.00 0.00 34 1015.0
20260503003822 70 9 2.0 3.0 0.00 0.00 0.00 32 1014.9
20260503003319 70 34 2.0 2.0 0.00 0.00 0.00 33 1015.1
20260503002816 71 43 6.0 8.0 0.00 0.00 0.00 29 1015.1
20260503002313 71 347 2.0 2.0 0.00 0.00 0.00 32 1015.1
20260503001809 70 71 3.0 4.0 0.00 0.00 0.00 31 1015.1
20260503001305 70 86 3.0 4.0 0.00 0.00 0.00 32 1015.2
20260503000803 70 46 2.0 2.0 0.00 0.00 0.00 33 1015.1
20260503000300 69 73 2.0 3.0 0.00 0.00 0.00 33 1015.1
20260502235757 70 26 2.0 3.0 0.00 0.00 0.00 35 1015.4
20260502235255 69 31 1.0 1.0 0.00 0.00 0.00 36 1015.2
20260502234751 69 53 1.0 2.0 0.00 0.00 0.00 36 1015.4
20260502234248 69 9 3.0 3.0 0.00 0.00 0.00 36 1015.1
20260502233744 69 55 0.0 0.0 0.00 0.00 0.00 34 1015.5
20260502233241 70 81 1.0 2.0 0.00 0.00 0.00 32 1015.4
20260502232737 70 18 3.0 4.0 0.00 0.00 0.00 33 1015.2
20260502232234 70 62 4.0 6.0 0.00 0.00 0.00 35 1015.2
20260502231731 70 65 3.0 3.0 0.00 0.00 0.00 33 1015.5
20260502231228 70 72 1.0 1.0 0.00 0.00 0.00 33 1015.6
20260502230727 70 25 2.0 2.0 0.00 0.00 0.00 35 1015.5
20260502230225 71 9 4.0 7.0 0.00 0.00 0.00 31 1015.7
20260502225720 72 22 1.0 2.0 0.00 0.00 0.00 33 1015.8
20260502225218 72 96 2.0 3.0 0.00 0.00 0.00 29 1015.7
20260502224713 72 120 3.0 4.0 0.00 0.00 0.00 31 1015.9
20260502224211 71 45 3.0 4.0 0.00 0.00 0.00 31 1015.7
20260502223708 71 103 3.0 4.0 0.00 0.00 0.00 33 1015.9
20260502223206 70 65 2.0 3.0 0.00 0.00 0.00 34 1016.0
20260502222704 70 27 2.0 2.0 0.00 0.00 0.00 35 1016.0
20260502222200 70 140 2.0 3.0 0.00 0.00 0.00 31 1015.9
20260502221655 71 133 3.0 3.0 0.00 0.00 0.00 33 1015.8
20260502221153 70 50 2.0 3.0 0.00 0.00 0.00 31 1016.0
20260502220649 69 108 2.0 3.0 0.00 0.00 0.00 34 1016.1
20260502220145 69 93 1.0 1.0 0.00 0.00 0.00 32 1016.1
20260502215643 69 113 5.0 6.0 0.00 0.00 0.00 31 1016.1
20260502215139 69 144 1.0 2.0 0.00 0.00 0.00 32 1016.1
20260502214636 70 107 2.0 3.0 0.00 0.00 0.00 31 1016.2
20260502214133 70 124 4.0 6.0 0.00 0.00 0.00 31 1016.1
20260502213631 70 125 4.0 6.0 0.00 0.00 0.00 31 1016.2
20260502213128 70 101 2.0 2.0 0.00 0.00 0.00 30 1016.3
20260502212627 70 107 1.0 2.0 0.00 0.00 0.00 32 1016.3
20260502212125 69 99 1.0 2.0 0.00 0.00 0.00 31 1016.6
20260502211620 69 96 3.0 3.0 0.00 0.00 0.00 33 1016.6
20260502211117 69 116 2.0 2.0 0.00 0.00 0.00 34 1016.5
20260502210615 69 64 2.0 2.0 0.00 0.00 0.00 33 1016.7
20260502210111 69 82 0.0 0.0 0.00 0.00 0.00 34 1016.7
20260502205608 70 101 2.0 2.0 0.00 0.00 0.00 32 1016.7
20260502205105 69 301 2.0 2.0 0.00 0.00 0.00 30 1016.8
20260502204601 70 3 2.0 2.0 0.00 0.00 0.00 31 1017.0
20260502204100 72 89 4.0 6.0 0.00 0.00 0.00 30 1017.0
20260502203556 72 73 1.0 1.0 0.00 0.00 0.00 30 1017.2
20260502203054 71 36 0.0 1.0 0.00 0.00 0.00 32 1017.1
20260502202549 71 52 5.0 7.0 0.00 0.00 0.00 31 1017.3
20260502202048 70 96 4.0 7.0 0.00 0.00 0.00 34 1017.1
20260502201543 69 15 2.0 3.0 0.00 0.00 0.00 34 1017.3
20260502201040 70 136 4.0 4.0 0.00 0.00 0.00 28 1017.3
20260502200536 70 34 2.0 3.0 0.00 0.00 0.00 36 1017.4
20260502200034 70 71 4.0 4.0 0.00 0.00 0.00 32 1017.7
20260502195531 70 55 2.0 3.0 0.00 0.00 0.00 31 1017.7
20260502195027 70 63 2.0 2.0 0.00 0.00 0.00 34 1017.7
20260502194524 69 0 0.0 1.0 0.00 0.00 0.00 38 1017.6
20260502194020 69 114 5.0 7.0 0.00 0.00 0.00 32 1018.0
20260502193518 68 75 1.0 2.0 0.00 0.00 0.00 34 1017.8
20260502193014 68 99 4.0 6.0 0.00 0.00 0.00 32 1017.9
20260502192510 68 53 1.0 2.0 0.00 0.00 0.00 35 1018.0
20260502192008 69 86 3.0 3.0 0.00 0.00 0.00 32 1018.0
20260502191504 69 79 4.0 6.0 0.00 0.00 0.00 34 1018.1
20260502191002 69 96 2.0 2.0 0.00 0.00 0.00 37 1018.2
20260502190459 68 93 1.0 1.0 0.00 0.00 0.00 39 1018.1
20260502185955 68 74 0.0 0.0 0.00 0.00 0.00 40 1018.2
20260502185451 68 64 4.0 6.0 0.00 0.00 0.00 36 1018.4
20260502184948 66 8 1.0 1.0 0.00 0.00 0.00 36 1018.5
20260502184443 67 74 6.0 7.0 0.00 0.00 0.00 34 1018.4
20260502183940 67 65 6.0 7.0 0.00 0.00 0.00 35 1018.5
20260502183437 67 70 1.0 2.0 0.00 0.00 0.00 38 1018.5
20260502182931 67 14 1.0 1.0 0.00 0.00 0.00 35 1018.5
20260502182427 66 86 3.0 4.0 0.00 0.00 0.00 36 1018.8
20260502181924 66 115 2.0 3.0 0.00 0.00 0.00 38 1018.7
20260502181422 66 24 2.0 3.0 0.00 0.00 0.00 37 1018.9
20260502180920 65 84 4.0 7.0 0.00 0.00 0.00 38 1019.0
20260502180417 66 115 6.0 7.0 0.00 0.00 0.00 35 1019.1
20260502170336 64 62 2.0 3.0 0.00 0.00 0.00 41 1019.5
20260502164323 63 101 2.0 2.0 0.00 0.00 0.00 42 1019.2
20260502163819 62 141 2.0 3.0 0.00 0.00 0.00 47 1019.3
20260502163316 61 104 1.0 1.0 0.00 0.00 0.00 50 1019.4
20260502162813 60 115 2.0 2.0 0.00 0.00 0.00 52 1019.3
20260502162310 59 119 2.0 3.0 0.00 0.00 0.00 54 1019.3
20260502161807 59 108 2.0 3.0 0.00 0.00 0.00 54 1019.3
20260502161303 58 71 0.0 0.0 0.00 0.00 0.00 56 1019.4
20260502160801 57 112 2.0 3.0 0.00 0.00 0.00 56 1019.4
20260502160300 57 94 2.0 2.0 0.00 0.00 0.00 58 1019.4
20260502152229 54 62 0.0 0.0 0.00 0.00 0.00 65 1019.7
20260502151727 53 111 2.0 2.0 0.00 0.00 0.00 69 1019.4
20260502151223 53 118 2.0 2.0 0.00 0.00 0.00 69 1019.2
20260502150721 53 84 1.0 1.0 0.00 0.00 0.00 65 1019.3
20260502150218 53 79 0.0 1.0 0.00 0.00 0.00 66 1019.3
20260502130606 40 236 1.0 1.0 0.00 0.00 0.00 86 1019.1
20260502130104 40 266 1.0 1.0 0.00 0.00 0.00 87 1019.2
20260502123549 40 284 2.0 2.0 0.00 0.00 0.00 84 1019.1
20260502123045 41 259 3.0 3.0 0.00 0.00 0.00 83 1018.9
20260502122542 41 260 2.0 2.0 0.00 0.00 0.00 82 1018.8
20260502122040 41 290 3.0 3.0 0.00 0.00 0.00 82 1019.0
20260502121537 41 271 1.0 1.0 0.00 0.00 0.00 81 1018.8
20260502121034 42 31 0.0 0.0 0.00 0.00 0.00 81 1018.9
20260502120530 42 294 2.0 3.0 0.00 0.00 0.00 80 1018.8
20260502115525 41 10 1.0 1.0 0.00 0.00 0.00 84 1019.0
20260502115021 41 2 0.0 1.0 0.00 0.00 0.00 84 1019.1
20260502114518 41 266 0.0 0.0 0.00 0.00 0.00 84 1019.0
20260502114015 41 127 1.0 1.0 0.00 0.00 0.00 83 1019.1
20260502113512 40 266 2.0 2.0 0.00 0.00 0.00 84 1019.0
20260502113011 40 186 0.0 0.0 0.00 0.00 0.00 85 1019.0
20260502112508 40 6 0.0 1.0 0.00 0.00 0.00 84 1019.0
20260502112005 40 333 1.0 1.0 0.00 0.00 0.00 84 1019.0
20260502111502 40 218 1.0 1.0 0.00 0.00 0.00 84 1019.0
20260502111000 40 295 2.0 2.0 0.00 0.00 0.00 85 1018.9
20260502110457 40 264 4.0 6.0 0.00 0.00 0.00 83 1019.0
20260502105954 41 269 4.0 4.0 0.00 0.00 0.00 81 1019.1
20260502105452 41 281 5.0 6.0 0.00 0.00 0.00 82 1019.0
20260502104950 39 282 3.0 3.0 0.00 0.00 0.00 86 1018.9
20260502104447 39 260 4.0 4.0 0.00 0.00 0.00 86 1019.1
20260502103944 39 280 5.0 6.0 0.00 0.00 0.00 85 1019.0
20260502103441 40 271 3.0 3.0 0.00 0.00 0.00 85 1018.9
20260502102938 40 258 3.0 3.0 0.00 0.00 0.00 84 1018.9
20260502102435 41 262 3.0 3.0 0.00 0.00 0.00 82 1018.5
20260502101932 41 277 2.0 2.0 0.00 0.00 0.00 83 1018.5
20260502101431 40 282 1.0 2.0 0.00 0.00 0.00 84 1018.4
20260502100928 41 315 1.0 2.0 0.00 0.00 0.00 82 1018.4
20260502100428 41 260 2.0 2.0 0.00 0.00 0.00 81 1018.1
20260502091401 41 264 3.0 3.0 0.00 0.00 0.00 80 1017.8
20260502090859 41 275 4.0 4.0 0.00 0.00 0.00 81 1017.8
20260502090355 41 278 4.0 4.0 0.00 0.00 0.00 81 1018.0
20260502071250 45 277 4.0 4.0 0.00 0.00 0.00 74 1017.9
20260502070749 44 280 4.0 4.0 0.00 0.00 0.00 76 1017.9
20260502070246 45 268 4.0 4.0 0.00 0.00 0.00 76 1017.9
20260502065744 46 275 4.0 4.0 0.00 0.00 0.00 73 1018.1
20260502065242 45 275 4.0 4.0 0.00 0.00 0.00 75 1017.9
20260502064740 45 273 4.0 4.0 0.00 0.00 0.00 75 1017.8
20260502064238 46 275 3.0 3.0 0.00 0.00 0.00 75 1017.9
20260502063735 48 268 4.0 4.0 0.00 0.00 0.00 70 1017.7
20260502063233 47 286 3.0 3.0 0.00 0.00 0.00 70 1017.8
20260502062730 45 279 3.0 3.0 0.00 0.00 0.00 75 1017.9
20260502062227 46 253 1.0 1.0 0.00 0.00 0.00 78 1017.8
20260502061726 47 249 2.0 3.0 0.00 0.00 0.00 73 1017.7
20260502061223 48 284 2.0 3.0 0.00 0.00 0.00 70 1017.7
20260502060718 47 292 2.0 2.0 0.00 0.00 0.00 70 1017.6
20260502060214 47 276 3.0 3.0 0.00 0.00 0.00 72 1017.7
20260502055712 46 279 3.0 3.0 0.00 0.00 0.00 75 1017.6
20260502055210 46 276 2.0 2.0 0.00 0.00 0.00 76 1017.4
20260502054709 47 259 3.0 3.0 0.00 0.00 0.00 75 1017.3
20260502054206 48 270 4.0 4.0 0.00 0.00 0.00 72 1017.4
20260502053703 49 267 4.0 4.0 0.00 0.00 0.00 70 1017.4
20260502053200 48 277 4.0 4.0 0.00 0.00 0.00 69 1017.4
20260502052658 48 283 4.0 4.0 0.00 0.00 0.00 73 1017.3
20260502052156 48 278 1.0 1.0 0.00 0.00 0.00 73 1017.3
20260502051654 48 294 1.0 1.0 0.00 0.00 0.00 74 1017.3
20260502051152 48 278 1.0 2.0 0.00 0.00 0.00 72 1017.3
20260502050648 49 271 3.0 3.0 0.00 0.00 0.00 72 1017.3
20260502050145 49 267 3.0 3.0 0.00 0.00 0.00 71 1017.2
20260502045641 50 273 4.0 4.0 0.00 0.00 0.00 68 1017.2
20260502045139 50 280 5.0 6.0 0.00 0.00 0.00 66 1017.2
20260502044635 50 273 4.0 4.0 0.00 0.00 0.00 66 1017.0
20260502044131 50 274 4.0 4.0 0.00 0.00 0.00 67 1017.1
20260502043630 51 281 4.0 4.0 0.00 0.00 0.00 69 1017.1
20260502043127 51 268 4.0 4.0 0.00 0.00 0.00 67 1017.0
20260502042626 50 270 4.0 4.0 0.00 0.00 0.00 66 1017.0
20260502042124 51 273 4.0 4.0 0.00 0.00 0.00 67 1016.8
20260502041621 52 274 3.0 3.0 0.00 0.00 0.00 65 1016.9
20260502041118 52 272 4.0 4.0 0.00 0.00 0.00 59 1016.9
20260502040615 52 276 4.0 4.0 0.00 0.00 0.00 65 1016.7
20260502040112 52 276 4.0 4.0 0.00 0.00 0.00 64 1016.8
20260502035608 52 271 4.0 4.0 0.00 0.00 0.00 65 1016.7
20260502035105 53 266 4.0 4.0 0.00 0.00 0.00 63 1016.9
20260502034603 53 266 4.0 4.0 0.00 0.00 0.00 63 1016.9
20260502034101 54 272 3.0 3.0 0.00 0.00 0.00 65 1016.7
20260502033559 54 274 4.0 4.0 0.00 0.00 0.00 58 1016.5
20260502033056 55 274 3.0 3.0 0.00 0.00 0.00 61 1016.5
20260502032552 56 272 3.0 3.0 0.00 0.00 0.00 53 1016.6
20260502032049 56 293 2.0 2.0 0.00 0.00 0.00 53 1016.3
20260502031547 57 277 2.0 3.0 0.00 0.00 0.00 54 1016.5
20260502031044 58 302 2.0 2.0 0.00 0.00 0.00 49 1016.1